This is the latest recevied weather packets stored in our database for station/object N5PA. If no packets are shown the sender has not sent any weather packets the latest 10 day(s).
| Time | Temp. | Humidity | Pressure | Rain* | Wind** | Luminosity | Snow |
|---|---|---|---|---|---|---|---|
| 1777536907 | 18.33° C | 35% | 1011.9 hPa | 0 mm | - | 1007 W/m² | - |
| 1777536607 | 18.33° C | 35% | 1012 hPa | 0 mm | - | 1009 W/m² | - |
| 1777536307 | 18.33° C | 35% | 1012 hPa | 0 mm | - | 1011 W/m² | - |
| 1777536007 | 18.33° C | 35% | 1012.1 hPa | 0 mm | - | 1007 W/m² | - |
| 1777535707 | 18.33° C | 35% | 1012 hPa | 0 mm | - | 1011 W/m² | - |
| 1777535408 | 18.33° C | 36% | 1012.2 hPa | 0 mm | - | 1002 W/m² | - |
| 1777535107 | 18.33° C | 36% | 1012.2 hPa | 0 mm | - | 1011 W/m² | - |
| 1777534807 | 18.33° C | 36% | 1011.9 hPa | 0 mm | - | 1007 W/m² | - |
| 1777534507 | 18.33° C | 36% | 1011.9 hPa | 0 mm | - | 1011 W/m² | - |
| 1777534208 | 18.89° C | 36% | 1012 hPa | 0 mm | - | 1011 W/m² | - |
| 1777533906 | 18.89° C | 36% | 1012 hPa | 0 mm | - | 1011 W/m² | - |
| 1777533606 | 18.89° C | 36% | 1011.8 hPa | 0 mm | - | 1011 W/m² | - |
| 1777533307 | 18.89° C | 36% | 1011.7 hPa | 0 mm | - | 1013 W/m² | - |
| 1777533006 | 18.89° C | 36% | 1011.5 hPa | 0 mm | - | 1004 W/m² | - |
| 1777532707 | 18.89° C | 36% | 1011.5 hPa | 0 mm | - | 1011 W/m² | - |
| 1777532406 | 18.89° C | 36% | 1011.4 hPa | 0 mm | - | 1011 W/m² | - |
| 1777532107 | 18.89° C | 36% | 1011.6 hPa | 0 mm | - | 1011 W/m² | - |
| 1777531807 | 18.89° C | 36% | 1011.8 hPa | 0 mm | - | 1011 W/m² | - |
| 1777531506 | 18.89° C | 36% | 1011.4 hPa | 0 mm | - | 1013 W/m² | - |
| 1777531206 | 18.89° C | 36% | 1011.6 hPa | 0 mm | - | 1013 W/m² | - |
| 1777530906 | 18.89° C | 36% | 1011.6 hPa | 0 mm | - | 1011 W/m² | - |
| 1777530607 | 18.89° C | 36% | 1011.9 hPa | 0 mm | - | 1011 W/m² | - |
| 1777530306 | 18.89° C | 36% | 1011.8 hPa | 0 mm | - | 1011 W/m² | - |
| 1777530007 | 18.89° C | 36% | 1011.9 hPa | 0 mm | - | 997 W/m² | - |
| 1777529706 | 18.89° C | 36% | 1012 hPa | 0 mm | - | 1009 W/m² | - |
* Rain latest hour (hover to see other rain measurements)
** Current wind speed in m/s (hover to see current wind gust speed)